Fort Collins, CO

11:24 PM MST on December 16, 2017 (GMT -0700)
Fort Collins-Loveland Municipal

Weather History for KFNL - February, 2014

Change the Weather History Date:

Thursday, February 20, 2014

  Actual Average Record
Temperature  
Mean Temperature 32 °F -  
Max Temperature 37 °F - 64 °F (2017)
Min Temperature 26 °F - 1 °F (2006)
Degree Days  
Heating Degree Days 34    
Month to date heating degree days  
Cooling Degree Days 0    
Month to date cooling degree days  
Moisture  
Dew Point 6 °F    
Average Humidity 34    
Maximum Humidity 55    
Minimum Humidity 24    
Precipitation  
Precipitation 0.00 in - 0.04 in (2011)
Sea Level Pressure  
Sea Level Pressure 29.88 in    
Wind  
Wind Speed 20 mph (WNW)    
Max Wind Speed 32 mph    
Max Gust Speed 40 mph    
Visibility 10 miles    
Events      
T = Trace of Precipitation, MM = Missing Value Source: NWS Daily Summary

Daily Weather History Graph

Daily Weather History Graph

Search for Another Location

Airport or City:

Trip Planner

Search our weather history database for the weather conditions in past years. The results will help you decide how hot, cold, wet, or windy it might be!

Date:

Astronomy

Feb. 20, 2014 Rise Set
Actual Time 6:46 AM MST 5:41 PM MST
Civil Twilight 6:19 AM MST 6:09 PM MST
Nautical Twilight 5:47 AM MST 6:40 PM MST
Astronomical Twilight 5:15 AM MST 7:12 PM MST
Moon 11:39 PM MST (2/20) 9:29 AM MST (2/20)
Length of Visible Light 11h 49m
Length of Day
10h 54m
Waning Gibbous, 70% of the Moon is Illuminated
Feb 20
Waning Gibbous
Feb 22
Last Quarter
Mar 1
New
Mar 8
First Quarter
Mar 16
Full

Hourly Weather History & Observations

Time (MST) Temp. Windchill Dew Point Humidity Pressure Visibility Wind Dir Wind Speed Gust Speed Precip Events Conditions
12:15 AM 32.0 °F 19.2 °F 17.6 °F 55% 29.74 in 10.0 mi North 23.0 mph 29.9 mph N/A   Clear
12:35 AM 30.2 °F 18.1 °F 15.8 °F 55% 29.75 in 10.0 mi NNW 18.4 mph 27.6 mph N/A   Clear
12:55 AM 30.2 °F 15.7 °F 14.0 °F 51% 29.75 in 10.0 mi NW 27.6 mph 33.4 mph N/A   Clear
1:15 AM 32.0 °F 18.9 °F 10.4 °F 41% 29.76 in 10.0 mi NW 24.2 mph 36.8 mph N/A   Clear
1:35 AM 32.0 °F 19.5 °F 10.4 °F 41% 29.77 in 10.0 mi NNW 21.9 mph 25.3 mph N/A   Clear
1:55 AM 30.2 °F 19.3 °F 10.4 °F 44% 29.77 in 10.0 mi NNW 15.0 mph - N/A   Clear
2:15 AM 30.2 °F 20.2 °F 10.4 °F 44% 29.78 in 10.0 mi NNW 12.7 mph - N/A   Partly Cloudy
2:35 AM 30.2 °F 18.5 °F 10.4 °F 44% 29.78 in 10.0 mi NW 17.3 mph 23.0 mph N/A   Partly Cloudy
2:55 AM 30.2 °F 18.1 °F 8.6 °F 40% 29.78 in 10.0 mi NW 18.4 mph 27.6 mph N/A   Clear
3:15 AM 28.4 °F 16.6 °F 8.6 °F 43% 29.79 in 10.0 mi NNW 16.1 mph - N/A   Clear
3:35 AM 28.4 °F 16.2 °F 8.6 °F 43% 29.80 in 10.0 mi NW 17.3 mph - N/A   Clear
3:55 AM 28.4 °F 14.7 °F 6.8 °F 40% 29.81 in 10.0 mi WNW 21.9 mph 29.9 mph N/A   Clear
4:15 AM 28.4 °F 16.2 °F 8.6 °F 43% 29.82 in 10.0 mi WNW 17.3 mph - N/A   Clear
4:35 AM 28.4 °F 17.5 °F 8.6 °F 43% 29.83 in 10.0 mi West 13.8 mph - N/A   Clear
4:55 AM 26.6 °F 13.8 °F 8.6 °F 47% 29.85 in 10.0 mi WNW 17.3 mph 24.2 mph N/A   Clear
5:15 AM 28.4 °F 14.7 °F 5.0 °F 37% 29.85 in 10.0 mi WNW 21.9 mph 29.9 mph N/A   Clear
5:35 AM 28.4 °F 15.8 °F 5.0 °F 37% 29.87 in 10.0 mi WNW 18.4 mph 29.9 mph N/A   Clear
5:55 AM 26.6 °F 14.7 °F 5.0 °F 40% 29.88 in 10.0 mi NW 15.0 mph - N/A   Clear
6:15 AM 28.4 °F 14.1 °F 3.2 °F 34% 29.89 in 10.0 mi WNW 24.2 mph 27.6 mph N/A   Clear
6:35 AM 28.4 °F 15.4 °F 1.4 °F 31% 29.89 in 10.0 mi WNW 19.6 mph 28.8 mph N/A   Clear
6:55 AM 26.6 °F 14.3 °F 3.2 °F 37% 29.90 in 10.0 mi WNW 16.1 mph 21.9 mph N/A   Clear
7:15 AM 28.4 °F 14.4 °F 1.4 °F 31% 29.91 in 10.0 mi WNW 23.0 mph 29.9 mph N/A   Clear
7:35 AM 28.4 °F 18.5 °F 1.4 °F 31% 29.93 in 10.0 mi NW 11.5 mph - N/A   Clear
7:55 AM 28.4 °F 14.4 °F 1.4 °F 31% 29.95 in 10.0 mi NW 23.0 mph 34.5 mph N/A   Clear
8:15 AM 28.4 °F 15.1 °F 1.4 °F 31% 29.95 in 10.0 mi WNW 20.7 mph 35.7 mph N/A   Clear
8:35 AM 30.2 °F 17.8 °F 1.4 °F 29% 29.96 in 10.0 mi NW 19.6 mph - N/A   Clear
8:55 AM 30.2 °F 16.8 °F 1.4 °F 29% 29.97 in 10.0 mi NW 23.0 mph 32.2 mph N/A   Partly Cloudy
9:15 AM 28.4 °F 15.1 °F 1.4 °F 31% 29.97 in 10.0 mi NW 20.7 mph 29.9 mph N/A   Partly Cloudy
9:35 AM 30.2 °F 15.7 °F 1.4 °F 29% 29.98 in 10.0 mi WNW 27.6 mph 35.7 mph N/A   Partly Cloudy
9:55 AM 30.2 °F 15.9 °F 1.4 °F 29% 29.98 in 10.0 mi NW 26.5 mph 33.4 mph N/A   Partly Cloudy
10:15 AM 30.2 °F 17.1 °F 1.4 °F 29% 29.98 in 10.0 mi WNW 21.9 mph 29.9 mph N/A   Partly Cloudy
10:35 AM 30.2 °F 15.9 °F 3.2 °F 32% 29.98 in 10.0 mi West 26.5 mph 32.2 mph N/A   Scattered Clouds
10:55 AM 30.2 °F 16.2 °F 6.8 °F 37% 29.98 in 10.0 mi West 25.3 mph 38.0 mph N/A   Mostly Cloudy
11:15 AM 32.0 °F 18.6 °F 5.0 °F 32% 29.99 in 10.0 mi WNW 25.3 mph 35.7 mph N/A   Mostly Cloudy
11:35 AM 32.0 °F 17.6 °F 5.0 °F 32% 29.98 in 10.0 mi West 29.9 mph 39.1 mph N/A   Partly Cloudy
11:55 AM 33.8 °F 20.8 °F 6.8 °F 32% 29.98 in 10.0 mi WNW 26.5 mph 40.3 mph N/A   Partly Cloudy
12:15 PM 32.0 °F 18.4 °F 8.6 °F 38% 29.97 in 10.0 mi NW 26.5 mph 38.0 mph N/A   Clear
12:35 PM 33.8 °F 20.3 °F 8.6 °F 35% 29.96 in 10.0 mi NW 28.8 mph 34.5 mph N/A   Clear
12:55 PM 33.8 °F 20.3 °F 6.8 °F 32% 29.95 in 10.0 mi WNW 28.8 mph 38.0 mph N/A   Clear
1:15 PM 35.6 °F 22.5 °F 3.2 °F 26% 29.95 in 10.0 mi WNW 29.9 mph 38.0 mph N/A   Clear
1:35 PM 35.6 °F 22.1 °F 3.2 °F 26% 29.94 in 10.0 mi NW 32.2 mph 40.3 mph N/A   Clear
1:55 PM 35.6 °F 24.2 °F 3.2 °F 26% 29.94 in 10.0 mi WNW 21.9 mph 36.8 mph N/A   Clear
2:15 PM 35.6 °F 22.1 °F 3.2 °F 26% 29.94 in 10.0 mi NW 32.2 mph 40.3 mph N/A   Clear
2:35 PM 35.6 °F 23.7 °F 3.2 °F 26% 29.94 in 10.0 mi NW 24.2 mph 33.4 mph N/A   Clear
2:55 PM 35.6 °F 25.2 °F 5.0 °F 28% 29.93 in 10.0 mi NW 18.4 mph 28.8 mph N/A   Clear
3:15 PM 37.4 °F 27.8 °F 5.0 °F 26% 29.92 in 10.0 mi NNW 17.3 mph 26.5 mph N/A   Clear
3:35 PM 37.4 °F 28.2 °F 5.0 °F 26% 29.92 in 10.0 mi NW 16.1 mph 20.7 mph N/A   Clear
3:55 PM 37.4 °F 28.5 °F 5.0 °F 26% 29.91 in 10.0 mi WNW 15.0 mph 23.0 mph N/A   Clear
4:15 PM 37.4 °F 25.9 °F 3.2 °F 24% 29.91 in 10.0 mi West 25.3 mph 31.1 mph N/A   Clear
4:35 PM 35.6 °F 23.7 °F 3.2 °F 26% 29.90 in 10.0 mi NW 24.2 mph 28.8 mph N/A   Clear
4:55 PM 35.6 °F 23.7 °F 3.2 °F 26% 29.89 in 10.0 mi WNW 24.2 mph 31.1 mph N/A   Clear
5:15 PM 35.6 °F 25.5 °F 3.2 °F 26% 29.89 in 10.0 mi WNW 17.3 mph 32.2 mph N/A   Clear
5:35 PM 35.6 °F 27.1 °F 3.2 °F 26% 29.90 in 10.0 mi West 12.7 mph 24.2 mph N/A   Clear
5:55 PM 33.8 °F 24.8 °F 3.2 °F 28% 29.91 in 10.0 mi NW 12.7 mph - N/A   Clear
6:15 PM 32.0 °F 24.8 °F 3.2 °F 30% 29.91 in 10.0 mi NW 8.1 mph 18.4 mph N/A   Clear
6:35 PM 33.8 °F 23.9 °F 3.2 °F 28% 29.90 in 10.0 mi West 15.0 mph - N/A   Clear
6:55 PM 32.0 °F 24.8 °F 3.2 °F 30% 29.90 in 10.0 mi WNW 8.1 mph - N/A   Clear
7:15 PM 30.2 °F - 6.8 °F 37% 29.89 in 10.0 mi Calm Calm - N/A   Clear
7:35 PM 30.2 °F 25.4 °F 6.8 °F 37% 29.89 in 10.0 mi SSE 4.6 mph - N/A   Clear
7:55 PM 32.0 °F 27.5 °F 6.8 °F 35% 29.88 in 10.0 mi SSE 4.6 mph - N/A   Clear
8:15 PM 30.2 °F 26.7 °F 5.0 °F 34% 29.87 in 10.0 mi SSE 3.5 mph - N/A   Clear
8:35 PM 32.0 °F 22.1 °F 5.0 °F 32% 29.85 in 10.0 mi SSW 13.8 mph - N/A   Clear
8:55 PM 32.0 °F 27.5 °F 6.8 °F 35% 29.85 in 10.0 mi SSW 4.6 mph - N/A   Clear
9:15 PM 30.2 °F 24.3 °F 5.0 °F 34% 29.84 in 10.0 mi South 5.8 mph - N/A   Clear
9:35 PM 33.8 °F 27.7 °F 3.2 °F 28% 29.84 in 10.0 mi SE 6.9 mph - N/A   Clear
9:55 PM 32.0 °F 26.4 °F 3.2 °F 30% 29.84 in 10.0 mi ESE 5.8 mph - N/A   Clear
10:15 PM 32.0 °F 25.6 °F 5.0 °F 32% 29.84 in 10.0 mi SW 6.9 mph - N/A   Clear
10:35 PM 33.8 °F 26.4 °F 8.6 °F 35% 29.83 in 10.0 mi WSW 9.2 mph - N/A   Clear
10:55 PM 35.6 °F 28.6 °F 6.8 °F 30% 29.83 in 10.0 mi West 9.2 mph 17.3 mph N/A   Clear
11:15 PM 35.6 °F 24.0 °F 8.6 °F 33% 29.82 in 10.0 mi West 23.0 mph 27.6 mph N/A   Clear
11:35 PM 35.6 °F 23.4 °F 6.8 °F 30% 29.82 in 10.0 mi West 25.3 mph 28.8 mph N/A   Clear
11:55 PM 35.6 °F 24.2 °F 6.8 °F 30% 29.83 in 10.0 mi West 21.9 mph 27.6 mph N/A   Clear